Regional Weather Roundup
Issued by NWS

Home | Current Version | Previous Version | Graphics & Text | Print | Product List | Glossary Off
Versions: 1 2 3 4 5 6 7 8 9 10 11 12 13 14 15 16 17 18 19 20 21 22 23 24 25 26 27 28 29 30 31 32 33 34 35 36 37 38 39 40 41 42 43 44 45 46 47 48 49 50

000
ASUS43 KMPX 202201
RWRMN
WEATHER ROUNDUP FOR MINNESOTA
NATIONAL WEATHER SERVICE TWIN CITIES/CHANHASSEN MN
500 PM CDT SUN MAY 20 2018


NOTE: "FAIR" INDICATES FEW OR NO CLOUDS BELOW 12,000 FEET WITH NO
SIGNIFICANT WEATHER AND/OR OBSTRUCTIONS TO VISIBILITY. N/A MEANS
CURRENT SKY AND/OR WEATHER CONDITIONS ARE NOT AVAILABLE.

MNZ060>063-068>070-202300-
   Twin Cities Metro

CITY           SKY/WX    TMP DP  RH WIND       PRES   REMARKS
TWIN CITIES    FAIR      72  31  22 E7        30.14F
ST PAUL        FAIR      71  33  24 E7G17     30.15F
CRYSTAL        FAIR      73  25  16 NE10      30.14F
BLAINE         MOSUNNY   72  25  17 E10       30.15F
LAKEVILLE      FAIR      70  37  30 E13       30.14F
EDEN PRAIRIE   FAIR      71  33  24 E8        30.13F
SOUTH ST PAUL  FAIR      72  29  20 E5        30.15S
LAKE ELMO      FAIR      70  32  24 NE12      30.16F
$$
MNZ001>005-007-008-013>017-022>024-027-028-202300-
   Northwest Minnesota

CITY           SKY/WX    TMP DP  RH WIND       PRES   REMARKS
BEMIDJI        FAIR      70  31  24 SE8       30.18F
HALLOCK        FAIR      75  25  15 S6        30.14F
ROSEAU         FAIR      72  36  26 SW8       30.16F
WARROAD        FAIR      72  37  28 SW6       30.17F
THIEF RVR FALL FAIR      71  29  21 CALM      30.18F
CROOKSTON      FAIR      72  30  21 N5        30.17F
FOSSTON        FAIR      73  30  20 N3        30.19F
DETROIT LAKES  FAIR      70  32  24 E5        30.18F
MOORHEAD       FAIR      73  30  20 E9        30.17F
PARK RAPIDS    FAIR      70  29  21 CALM      30.18F
MAHNOMEN       FAIR      69  36  29 CALM      30.18F
$$
MNZ006-009>011-018-025>026-202300-
   North Central Minnesota

CITY           SKY/WX    TMP DP  RH WIND       PRES   REMARKS
BAUDETTE       FAIR      73  32  22 VRB5      30.16F
FLAG ISLAND    FAIR      61  43  51 S15       30.14F
INTL FALLS     FAIR      74  29  19 VRB7      30.16F
WASKISH        PTSUNNY   70  34  26 W6        30.19F
BIG FORK       FAIR      73  36  25 E6        30.18F
LONGVILLE      FAIR      70  32  24 CALM      30.19F
GRAND RAPIDS   FAIR      68  34  28 N8        30.21F
CRANE LAKE     FAIR      72  28  20 CALM      30.18F
ORR            FAIR      73  21  14 N3        30.15F
COOK           FAIR      72  28  20 W3        30.18F
WALKER         FAIR      66  32  28 E7        30.19F
$$
MNZ012-019>021-037-202300-
   Northeast Minnesota

CITY           SKY/WX    TMP DP  RH WIND       PRES   REMARKS
DULUTH         FAIR      68  27  21 SE7       30.20F
ELY            FAIR      70  28  21 CALM      30.18F
HIBBING        FAIR      69  31  24 CALM      30.18F
EVELETH        FAIR      68  32  26 CALM      30.21F
DULUTH HARBOR  FAIR      61  43  51 CALM      30.20F
TWO HARBORS    FAIR      73  39  29 S7        30.18F
SILVER BAY     FAIR      68  30  24 S6        30.18F
GRAND MARAIS     N/A     50  34  54 W12       30.20F
G MARAIS ARPRT FAIR      63  27  25 SW8       30.20F
$$
MNZ029>031-032-039>041-046>048-054>057-064-202300-
   West Central Minnesota

CITY           SKY/WX    TMP DP  RH WIND       PRES   REMARKS
FERGUS FALLS   FAIR      70  34  26 E12       30.12F
WHEATON        SUNNY     72  21  15 E9        30.16F
MORRIS         SUNNY     73  28  19 E9        30.14F
ALEXANDRIA     FAIR      73  32  22 E10G18    30.17F
ELBOW LAKE     FAIR      70  35  27 SE10      30.16F
WADENA         FAIR      70  34  26 E6        30.17F
GLENWOOD       FAIR      72  27  18 E13       30.16F
APPLETON       SUNNY     73  19  13 E12G17    30.13F
BENSON         SUNNY     72  21  15 SE10      30.16F
ORTONVILLE     SUNNY     72  19  14 E13       30.14F
MADISON        MOSUNNY   75  25  15 E13       30.12F
WILLMAR        FAIR      72  25  17 NE13G18   30.16F
$$
MNZ033>034-036-042>043-049>051-058-059-202300-
   Central Minnesota

CITY           SKY/WX    TMP DP  RH WIND       PRES   REMARKS
ST CLOUD       FAIR      70  24  17 E5        30.16F
SAUK CENTRE    FAIR      70  27  20 E13       30.16F
PAYNESVILLE    FAIR      70  26  19 NE12      30.16F
AITKIN         FAIR      70  30  23 E7        30.17F
PINE RIVER     FAIR      66  37  34 SE6       30.21F
BRAINERD       FAIR      71  31  22 NE10      30.18F
STAPLES        FAIR      70  27  19 E6        30.18F
LONG PRAIRIE   FAIR      68  32  26 NE7       30.17F
LITTLE FALLS   FAIR      70  32  24 NE8       30.17F
LITCHFIELD     FAIR      72  28  20 E9        30.15F
BUFFALO        FAIR      71  24  17 E10G16    30.16F
MAPLE LAKE     FAIR      72  31  22 E9        30.16F
HUTCHINSON     FAIR      71  34  24 E13G18    30.15F
$$
MNZ037-044-045-052-053-202300-
   East Central Minnesota

CITY           SKY/WX    TMP DP  RH WIND       PRES   REMARKS
PRINCETON      FAIR      73  25  16 E9        30.16F
MORA           FAIR      70  32  24 E5        30.18F
CAMBRIDGE      FAIR      73  45  35 NE6       30.16F
RUSH CITY      FAIR      70  29  21 E5        30.17F
MOOSE LAKE     FAIR      70  34  26 NE7       30.17F
HINCKLEY       FAIR      72  32  23 E9        30.17F
CLOQUET        FAIR      68  18  14 E8        30.20F
MCGREGOR       FAIR      70  30  23 E5        30.19F
$$
MNZ071>073-080-081-089-090-097-098-202300-
   Southwest Minnesota

CITY           SKY/WX    TMP DP  RH WIND       PRES   REMARKS
MONTEVIDEO     SUNNY     73  21  14 SE10      30.12F
GRANITE FALLS  MOSUNNY   75  30  18 NE9       30.13F
CANBY          PTSUNNY   72  27  19 NE12      30.13F
MARSHALL       CLOUDY    70  48  45 SE14      30.12F
REDWOOD FALLS  PTSUNNY   70  48  45 SE13      30.12F
OLIVIA         MOSUNNY   73  34  23 E12       30.12F
PIPESTONE      CLOUDY    63  46  55 SE9       30.13F
WINDOM         CLOUDY    64  43  45 E12       30.12F
WORTHINGTON    CLOUDY    62  49  62 E12       30.13F
JACKSON        CLOUDY    63  50  63 E9        30.14S
TRACY          CLOUDY    66  52  61 SE12      30.13S
SLAYTON        CLOUDY    62  48  59 E12       30.15F
$$
MNZ065>067-074>077-082>085-091>093-202300-
   South Central Minnesota

CITY           SKY/WX    TMP DP  RH WIND       PRES   REMARKS
MANKATO        CLOUDY    67  50  54 E14       30.14F
NEW ULM        CLOUDY    66  48  52 SE13      30.13F
ST JAMES       CLOUDY    64  52  63 E12       30.14F
FAIRMONT       CLOUDY    62  51  67 E10       30.14F
GLENCOE        FAIR      71  34  25 E8G16     30.14F
FARIBAULT      PTSUNNY   70  48  46 CALM      30.15S
OWATONNA       FAIR      66  52  59 E13       30.15F
WASECA         PTSUNNY   63  50  63 E10       30.16F
ALBERT LEA     CLOUDY    57  48  72 E7        30.15F
$$
MNZ078>079-086>088-094>096-202300-
   Southeast Minnesota

CITY           SKY/WX    TMP DP  RH WIND       PRES   REMARKS
ROCHESTER      CLOUDY    58  51  78 E10       30.16F
RED WING       FAIR      72  36  26 SE9       30.14S
STANTON        FAIR      70  44  38 E9        30.14F
DODGE CENTER   FAIR      63  48  59 E13       30.16F
WINONA         FAIR      61  45  55 E8        30.15F
AUSTIN         CLOUDY    55  50  82 E8        30.16F
PRESTON        CLOUDY    51  48  89 NE7       30.18S
$$
ABBREVIATIONS USED IN REMARKS
   TC - TEMPERATURES IN CELSIUS
  WCI - WIND CHILL INDEX
   HX - HEAT INDEX
  VSB - VISIBILITY
$$




USA.gov is the U.S. government's official web portal to all federal, state and local government web resources and services.